Hourly Data Report for October 21, 2014

All times are specified in Local Standard Time (LST). Add 1 hour to adjust for Daylight Saving Time where and when it is observed.

QIKIQTARJUAQ A
NUNAVUT

67°32'48.000" N
64°01'54.000" W
5.50 m
2400577
YVM

Download Data

Hourly Data (October 2014)
Hourly Data Report for October 21, 2014
Temp Definition
°C
Dew Point Temp Definition
°C
Rel Hum Definition
%
Wind Dir Definition
10's deg

Wind Spd Definition
km/h
Visibility Definition
km
Stn Press Definition
kPa
Hmdx Definition


Wind Chill Definition


Weather Definition


TIME
00:00 Legend Double Dagger -4.3 -7.6 78 17 5 16.1 100.74   -6 LegendNANA
01:00 Legend Double Dagger -4.7 -8.1 77 LegendMM 4 16.1 100.70   -6 LegendNANA
02:00 Legend Double Dagger -4.9 -7.8 80 19 9 16.1 100.66   -9 LegendNANA
03:00 Legend Double Dagger -3.8 -7.8 74   0 16.1 100.57     LegendNANA
04:00 Legend Double Dagger -4.9 -7.8 80 19 11 16.1 100.53   -9 LegendNANA
05:00 Legend Double Dagger -4.5 -7.7 79 19 13 16.1 100.51   -10 LegendNANA
06:00 Legend Double Dagger -4.3 -7.4 79 19 9 16.1 100.47   -8 LegendNANA
07:00 Legend Double Dagger -4.4 -7.5 79 20 11 16.1 100.44   -9 LegendNANA
08:00 Legend Double Dagger -4.7 -7.5 81 8 4 16.1 100.41   -6 LegendNANA
09:00 Legend Double Dagger -4.1 -7.4 78 13 4 16.1 100.38   -6 LegendNANA
10:00 Legend Double Dagger -4.5 -7.8 78 16 8 16.1 100.34   -8 LegendNANA
11:00 Legend Double Dagger -3.9 -7.3 78 19 5 16.1 100.31   -6 LegendNANA
12:00 Legend Double Dagger -4.1 -7.7 76 19 11 16.1 100.28   -9 LegendNANA
13:00 Legend Double Dagger -4.2 -8.2 74 16 5 16.1 100.28   -6 LegendNANA
14:00 Legend Double Dagger -3.1 -7.5 72 15 4 16.1 100.29   -5 LegendNANA
15:00 Legend Double Dagger -2.4 -6.9 71 33 15 16.1 100.31   -7 LegendNANA
16:00 Legend Double Dagger -2.7 -6.9 73 33 18 16.1 100.37   -8 LegendNANA
17:00 Legend Double Dagger -2.8 -7.5 70 35 18 16.1 100.36   -8 LegendNANA
18:00 Legend Double Dagger -6.1 -9.9 75 LegendMM 4 16.1 100.42   -8 LegendNANA
19:00 Legend Double Dagger -6.6 -10.2 76 16 9 16.1 100.45   -11 LegendNANA
20:00 Legend Double Dagger -7.6 -10.1 82 14 13 16.1 100.46   -13 LegendNANA
21:00 Legend Double Dagger -7.0 -10.4 77 14 9 16.1 100.45   -11 LegendNANA
22:00 Legend Double Dagger -6.6 -10.0 77 20 15 16.1 100.45   -13 LegendNANA
23:00 Legend Double Dagger -5.7 -9.3 76 19 21 16.1 100.46   -13 LegendNANA

Notes on Data Quality.

Legend

  • E = Estimated
  • M = Missing
  • NA = Not Available
  • ‡ = Partner data that is not subject to review by the National Climate Archives
Date modified: